HOT BIRD 3
1 24931U 97049A   03099.84635997  .00000088  00000-0  10000-3 0  4300
2 24931   0.0632  21.1145 0006301 353.2368 140.9901  1.00272510 20583
METEOSAT 7
1 24932U 97049B   03099.87234955 -.00000006 +00000-0 +00000-0 0 02735
2 24932 000.3285 075.7284 0000830 248.0319 187.5879 01.00269218020524
ASTRA 1G
1 25071U 97076A   03099.00000000  .00000122  00000-0  10000-3 0  3987
2 25071   0.0122 319.8851 0002995  65.1991 190.9189  1.00273184 19635
INMARSAT 3-F5
1 25153U 98006B   03104.72286257  .00000136  00000-0  10000-3 0  8708
2 25153   0.4706   0.8433 0021450 101.4060  25.3861  1.00279684 19054
HOT BIRD 4
1 25237U 98013A   03099.84635997  .00000087  00000-0  10000-3 0  3344
2 25237   0.0316 347.7932 0006645  69.4486  98.0254  1.00270260 19044
NOAA 15
1 25338U 98030A   03105.51880673  .00000195  00000-0  10308-3 0   797
2 25338  98.5474 126.1485 0010904 149.3016 210.8804 14.24272265255768
RESURS O1-N4
1 25394U 98043A   03105.36005827  .00000114  00000-0  68624-4 0  4943
2 25394  98.6215 182.2307 0000934 350.0842  10.0318 14.23899507247472
TMSAT
1 25396U 98043C   03104.85257329 -.00000043 +00000-0 +00000-0 0 09019
2 25396 098.6159 180.8443 0002159 357.0131 003.1034 14.23529478247391
TECHSAT 1B
1 25397U 98043D   03104.96628229 +.00000073 +00000-0 +51697-4 0 01817
2 25397 098.6139 179.7685 0001573 023.3745 336.7504 14.22973467247373
ASTRA 2A
1 25462U 98050A   03099.00000000  .00000152  00000-0  00000+0 0  5401
2 25462   0.0385 308.7109 0004824 280.8620 355.4582  1.00272094 16935
EUTELSAT W2
1 25491U 98056A   03098.89021750 +.00000107 +00000-0 +00000-0 0 05984
2 25491 000.0249 123.7930 0003338 243.5481 165.8860 01.00275331016549
HOT BIRD 5
1 25495U 98057A   03099.85365163  .00000146  00000-0  00000+0 0  5088
2 25495   0.0280  82.8420 0010247 215.0657 232.9622  1.00274308 16526
SEDSAT 1
1 25509U 98061B   03104.69165624 +.00000435 +00000-0 +77342-4 0 08259
2 25509 031.4291 201.8661 0356935 064.2468 299.4552 14.27483544233194
PAN SAT
1 25520U 98064B   03104.40283875  .00001939  00000-0  93275-4 0  6603
2 25520  28.4627 218.5471 0006129 230.2443 129.7548 15.14176152245908
ISS (ZARYA)
1 25544U 98067A   03105.40004630  .00017608  00000-0  23496-3 0  8949
2 25544  51.6341 335.6104 0006587  24.0671 320.1574 15.58161212251204
ORSTED
1 25635U 99008B   03104.92988810 +.00000494 +00000-0 +13231-3 0 08809
2 25635 096.4604 077.9544 0144866 152.7156 208.1731 14.44925192217939
SUNSAT
1 25636U 99008C   03104.98404658 +.00000230 +00000-0 +67810-4 0 06819
2 25636 096.4620 076.5384 0149063 159.6102 201.1132 14.42998387217804
UOSAT 12
1 25693U 99021A   03105.29600052  .00000093  00000-0  33211-4 0  8770
2 25693  64.5585 200.2094 0025552 313.1965  46.6983 14.76450378214484
FENGYUN 1C
1 25730U 99025A   03105.28951315  .00000051  00000-0  50982-4 0  8123
2 25730  98.6286 127.5906 0014057 200.3996 159.6613 14.11740822202492
ASTRA 1H
1 25785U 99033A   03099.00000000  .00000123  00000-0  10000-3 0  3783
2 25785   0.0122 319.8851 0002995  65.1991 190.9720  1.00273184 13991
TERRA
1 25994U 99068A   03105.27812153  .00000185  00000-0  51105-4 0  8796
2 25994  98.1904 180.6076 0000848  78.5154 281.6141 14.57133239176780
JAWSAT
1 26061U 00004A   03104.89991343  .00000528  00000-0  19293-3 0  8129
2 26061 100.1953 172.2089 0035801 123.1028 237.3594 14.37897060168484
OPAL
1 26063U 00004C   03104.68839968 +.00000142 +00000-0 +69337-4 0 07645
2 26063 100.2023 169.2372 0037215 131.0585 229.3808 14.35506812168303
ASUSAT
1 26065U 00004E   03105.20175420  .00000160  00000-0  75430-4 0  7801
2 26065 100.1991 170.0057 0037916 131.0571 229.3894 14.35537025168362
GOES 11
1 26352U 00022A   03105.34840439 -.00000035  00000-0  10000-3 0  1126
2 26352   0.2789  99.3030 0002896 228.6474 246.5229  1.00272082 10797
EUTELSAT W4
1 26369U 00028A   03103.00201694  .00000151  00000-0  00000+0 0  3726
2 26369   0.0621  25.5365 0012707  38.4042 173.6168  1.00277004 10588
FENGYUN 2B
1 26382U 00032A   03104.69773177 -.00000335  00000-0  00000+0 0  8306
2 26382   0.4311 298.2271 0001556 256.6792   2.8632  1.00284143 10260
EUTELSAT W1
1 26487U 00052A   03104.90251822  .00000064  00000-0  10000-3 0  3832
2 26487   0.0300 145.2215 0003999 235.0973 157.2105  1.00274234  9576
ASTRA 2B
1 26494U 00054A   03099.00000000  .00000152  00000-0  00000+0 0  2614
2 26494   0.0178 354.5658 0005000 302.8402 287.5550  1.00276704  9416
NOAA 16
1 26536U 00055A   03104.57305823 -.00000046  00000-0 -10084-5 0  2895
2 26536  98.9098  52.4770 0010847 145.9495 214.2375 14.11935421131919
SAUDISAT 1A
1 26545U 00057A   03105.32762953  .00000642  00000-0  10420-3 0  4380
2 26545  64.5580 220.5277 0047857 229.9550 129.7351 14.79129823137465
UNISAT
1 26547U 00057C   03104.87800899  .00001383  00000-0  19695-3 0  4581
2 26547  64.5567 223.9154 0055132 231.3400 128.2753 14.79986951137372
TIUNGSAT 1
1 26548U 00057D   03104.79063500  .00000924  00000-0  13467-3 0  4416
2 26548  64.5569 214.4480 0041054 230.5206 129.2232 14.81462009137543
SAUDISAT 1B
1 26549U 00057E   03104.79497071 +.00001016 +00000-0 +15682-3 0 07384
2 26549 064.5522 226.5640 0052562 229.3321 130.3209 14.78061706137301
AMSAT OSCAR 40
1 26609U 00072B   03101.06918723 -.00000337  00000-0  10000-3 0  3243
2 26609   8.4684  54.7135 7954739 162.8251 262.9704  1.25597299 11235
GOES 12
1 26871U 01031A   03105.24746560 -.00000252  00000-0  10000-3 0  9187
2 26871   0.1900 274.8693 0001156  66.3578 233.2981  1.00349175  6399
PCSAT
1 26931U 01043C   03104.95205755 +.00000128 +00000-0 +82933-4 0 04563
2 26931 067.0470 113.0323 0005880 274.4647 085.5782 14.29147129080266
SAPPHIRE
1 26932U 01043D   03105.20326570  .00000034  00000-0  45916-4 0  4445
2 26932  67.0541 112.0781 0003970 261.4284  98.6368 14.29316871 80328
ENVISAT
1 27386U 02009A   03105.36349627  .00000200  00000-0  74342-4 0    16
2 27386  98.5441 173.1229 0001002  94.6408 265.5381 14.32245927 58730
IDEFIX/ARIANE 42P
1 27422U 02021B   03104.95652390 +.00000201 +00000-0 +98805-4 0 03035
2 27422 098.6869 183.8775 0012387 352.9663 007.1341 14.28001985049365
FENGYUN 1D
1 27431U 02024B   03104.97673184 -.00000076 +00000-0 -19095-4 0 02668
2 27431 098.7609 152.4455 0014865 331.1108 028.9238 14.09182226047171
NOAA 17
1 27453U 02032A   03105.52312297  .00000236  00000-0  12365-3 0  3757
2 27453  98.7453 176.4113 0011810 190.2727 169.8211 14.23329442 41929
HOT BIRD 6
1 27499U 02038A   03104.14052927  .00000000  00000-0  10000-3 0   739
2 27499   0.0313 303.0505 0012771 138.1476 184.1937  1.00273600  2378
RUBIN 2
1 27605U 02058A   03105.24364386  .00000398  00000-0  84973-4 0  1087
2 27605  64.5514  28.1660 0034844  87.8066 272.7020 14.71460686 17009
